GW1779 Weather Reports


time (UTC)temp
C
wind
direction
speed
KPH
gust
KPH
rain 1hr
cm
rain 24hr
cm
rain mn
cm
humidity
%
barometer
mb
20260507201537 13 246 4.8 14.5 0.00 0.03 0.03 97 1003.5
20260507200059 13 0 0.0 16.1 0.00 0.03 0.03 98 1003.6
20260507194542 13 0 0.0 12.9 0.00 0.03 0.03 98 1003.9
20260507193045 12 246 4.8 16.1 0.00 0.03 0.03 98 1003.8
20260507191538 12 246 3.2 8.0 0.00 0.03 0.03 98 1003.6
20260507190037 12 246 3.2 12.9 0.00 0.03 0.03 98 1003.9
20260507184539 12 246 4.8 12.9 0.00 0.03 0.03 98 1004.1
20260507183046 11 0 0.0 12.9 0.00 0.03 0.03 98 1004.0
20260507181542 11 0 1.6 9.7 0.00 0.03 0.03 98 1003.9
20260507180045 11 246 1.6 14.5 0.00 0.03 0.03 98 1004.1
20260507174539 11 246 4.8 9.7 0.00 0.03 0.03 98 1004.3
20260507173037 11 246 4.8 9.7 0.00 0.03 0.03 98 1004.1
20260507171536 10 246 3.2 9.7 0.00 0.03 0.03 98 1004.5
20260507170043 10 246 8.0 12.9 0.00 0.03 0.03 98 1003.8
20260507164556 10 246 1.6 6.4 0.00 0.03 0.03 98 1004.7
20260507163039 10 246 3.2 9.7 0.00 0.03 0.03 98 1004.5
20260507161539 10 246 3.2 6.4 0.00 0.03 0.03 98 1004.7
20260507160039 10 0 0.0 8.0 0.00 0.03 0.03 98 1004.8
20260507154540 10 246 1.6 9.7 0.00 0.03 0.03 98 1005.5
20260507153042 9 0 1.6 6.4 0.00 0.03 0.03 98 1005.1
20260507151540 9 246 4.8 12.9 0.00 0.03 0.03 98 1005.4
20260507150038 9 246 6.4 9.7 0.00 0.03 0.03 98 1005.0
20260507144537 10 246 3.2 4.8 0.00 0.03 0.03 98 1006.0
20260507143038 10 246 1.6 4.8 0.00 0.03 0.03 98 1006.2
20260507141539 10 246 1.6 12.9 0.03 0.03 0.03 98 1005.9
20260507140044 10 246 8.0 19.3 0.03 0.03 0.03 98 1006.6
20260507134541 10 246 3.2 17.7 0.03 0.05 0.03 98 1006.0
20260507133055 10 246 6.4 17.7 0.03 0.05 0.03 98 1006.4
20260507131548 10 246 8.0 17.7 0.00 0.03 0.00 98 1006.4
20260507130049 10 246 3.2 16.1 0.00 0.03 0.00 98 1006.3
20260507124536 10 246 6.4 20.9 0.00 0.03 0.00 98 1006.8
20260507123034 10 246 9.7 22.5 0.00 0.03 0.00 98 1006.8
20260507121540 10 246 4.8 20.9 0.00 0.03 0.00 97 1007.0
20260507120050 10 246 4.8 24.1 0.00 0.03 0.00 97 1007.1
20260507114603 10 246 3.2 14.5 0.00 0.03 0.00 98 1007.1
20260507113037 10 246 6.4 24.1 0.00 0.03 0.00 97 1007.4
20260507111537 11 246 4.8 20.9 0.00 0.03 0.00 97 1007.4
20260507110037 11 246 8.0 25.7 0.00 0.03 0.00 97 1007.7
20260507104540 10 246 6.4 20.9 0.00 0.03 0.00 97 1008.1
20260507103038 11 246 11.3 27.4 0.00 0.03 0.00 97 1008.3
20260507101542 11 246 9.7 30.6 0.00 0.03 0.00 97 1008.3
20260507100037 10 246 4.8 19.3 0.00 0.03 0.00 97 1008.0
20260507094537 10 246 6.4 20.9 0.00 0.03 0.00 97 1008.2
20260507093047 10 246 12.9 25.7 0.00 0.03 0.00 97 1008.3
20260507091545 10 246 9.7 32.2 0.00 0.03 0.00 97 1008.3
20260507090040 10 246 9.7 25.7 0.00 0.03 0.00 96 1008.5
20260507084543 10 246 11.3 29.0 0.00 0.03 0.00 96 1008.5
20260507083037 10 246 11.3 27.4 0.00 0.03 0.00 96 1008.7
20260507081540 10 246 11.3 25.7 0.00 0.03 0.00 96 1009.0
20260507080036 10 246 9.7 25.7 0.00 0.03 0.00 96 1009.1
20260507074535 9 246 8.0 32.2 0.00 0.03 0.00 95 1009.4
20260507073039 10 246 9.7 22.5 0.00 0.03 0.00 95 1009.3
20260507071537 10 246 6.4 29.0 0.00 0.03 0.00 95 1009.3
20260507070039 10 246 6.4 29.0 0.00 0.03 0.00 94 1009.9
20260507064538 10 246 11.3 29.0 0.00 0.03 0.00 94 1010.1
20260507063037 10 246 14.5 29.0 0.00 0.03 0.00 94 1010.3
20260507061537 10 246 12.9 25.7 0.00 0.03 0.00 93 1010.7
20260507060036 10 246 9.7 30.6 0.00 0.03 0.00 92 1011.1
20260507054541 10 246 9.7 32.2 0.00 0.03 0.00 91 1011.3
20260507053039 10 246 9.7 24.1 0.00 0.03 0.00 90 1011.8
20260507051538 10 246 9.7 24.1 0.00 0.03 0.00 90 1012.0
20260507050037 10 246 8.0 30.6 0.00 0.03 0.00 90 1012.3
20260507044538 10 246 8.0 20.9 0.00 0.03 0.00 90 1012.4
20260507043039 10 246 11.3 25.7 0.00 0.03 0.00 89 1011.9
20260507041538 10 246 4.8 19.3 0.00 0.03 0.00 88 1013.4
20260507040041 10 246 4.8 19.3 0.00 0.03 0.00 89 1013.8
20260507034538 11 246 4.8 19.3 0.00 0.03 0.00 89 1013.9
20260507033037 10 246 4.8 19.3 0.00 0.03 0.00 89 1014.3
20260507031540 10 246 8.0 25.7 0.00 0.03 0.00 89 1014.3
20260507030038 10 246 6.4 16.1 0.00 0.03 0.00 89 1014.4
20260507024537 10 246 6.4 17.7 0.00 0.03 0.03 89 1014.8
20260507023045 10 246 6.4 17.7 0.00 0.03 0.03 89 1015.0
20260507021541 10 246 6.4 14.5 0.00 0.03 0.03 89 1015.4
20260507020058 10 246 6.4 16.1 0.00 0.03 0.03 88 1015.6
20260507014537 11 246 8.0 19.3 0.00 0.03 0.03 88 1015.9
20260507013048 11 246 8.0 22.5 0.00 0.03 0.03 88 1016.1
20260507011537 11 246 3.2 17.7 0.00 0.03 0.03 88 1016.3
20260507010037 11 246 4.8 14.5 0.00 0.03 0.03 88 1016.7
20260507004552 11 246 4.8 17.7 0.00 0.03 0.03 89 1016.8
20260507003044 10 0 3.2 16.1 0.00 0.03 0.03 88 1017.0
20260507001544 11 246 3.2 16.1 0.00 0.03 0.03 87 1017.0
20260507000037 11 246 4.8 12.9 0.00 0.03 0.03 87 1017.2
20260506234541 11 246 4.8 12.9 0.00 0.03 0.03 86 1017.2
20260506233041 11 246 3.2 12.9 0.00 0.03 0.03 86 1017.2
20260506231542 11 246 3.2 12.9 0.00 0.03 0.03 85 1017.2
20260506230046 11 246 4.8 14.5 0.00 0.03 0.03 85 1017.1
20260506224538 12 246 8.0 20.9 0.00 0.05 0.03 84 1016.8
20260506223043 12 246 3.2 20.9 0.00 0.05 0.03 83 1017.0
20260506221535 13 246 9.7 22.5 0.00 0.05 0.03 80 1017.3
20260506220036 15 246 11.3 27.4 0.00 0.05 0.03 79 1017.3
20260506214541 15 246 9.7 30.6 0.00 0.05 0.03 80 1017.1
20260506213051 15 246 8.0 25.7 0.00 0.05 0.03 80 1017.5
20260506211537 15 246 11.3 35.4 0.00 0.05 0.03 79 1017.6
20260506210037 15 246 4.8 17.7 0.00 0.05 0.03 80 1017.4
20260506204537 14 246 9.7 24.1 0.00 0.05 0.03 80 1017.5
20260506203036 13 246 6.4 37.0 0.00 0.05 0.03 80 1017.6